Theta_e
312 312 313 313 311 313 312 314 317 315 313 315 314 313 314 313 310 312 312 308 307 306 304 305 306 307 308 308 307 306 306 306 306 307 308 309 309 310 310 307 306 306 305 306
311 312 310 309 311 311 311 314 314 313 312 313 313 314 314 313 312 311 310 309 308 307 306 303 303 305 306 305 305 305 306 306 306 307 309 309 309 308 308 306 306 305 306 306
311 312 309 310 312 313 313 312 312 313 313 312 310 314 312 311 310 310 308 307 308 309 307 303 301 302 303 304 305 306 306 306 307 308 309 309 308 308 307 307 306 306 306 306
311 311 311 311 312 311 314 311 312 314 315 316 310 319 310 311 310 310 308 309 307 307 305 302 300 300 302 304 305 306 306 306 307 309 309 309 310 308 307 308 306 307 307 307
310 312 313 314 313 311 314 311 312 313 313 313 312 312 313 309 311 312 309 308 307 306 305 302 300 300 302 304 305 306 306 306 307 309 309 310 309 307 308 309 307 308 308 308
307 307 310 312 310 311 308 310 309 308 309 310 310 311 312 310 312 311 309 306 306 306 303 300 300 301 302 304 305 306 306 306 307 308 308 309 309 309 309 308 308 309 310 311
309 309 308 308 310 309 310 312 313 307 309 314 309 309 311 309 308 308 307 306 304 305 302 300 299 299 302 304 305 305 305 306 307 308 308 309 309 310 310 309 310 310 311 312
309 309 309 307 310 311 309 312 312 308 311 312 310 314 313 308 302 300 301 302 304 304 302 301 300 299 301 304 305 305 305 306 306 307 308 308 309 310 310 311 311 312 313 313
309 309 308 308 308 309 311 312 307 309 300 307 308 307 306 303 302 301 301 301 301 302 302 302 300 300 302 303 304 305 305 305 306 307 307 308 309 309 310 312 312 312 313 313
310 311 307 307 308 307 309 307 311 307 308 310 308 309 307 303 303 301 300 299 298 300 300 299 299 300 301 303 304 305 305 305 306 307 307 308 308 309 310 311 311 311 312 315
313 315 310 308 309 310 309 310 308 309 308 309 311 311 303 302 300 299 298 297 295 295 295 297 297 298 299 301 302 303 304 305 305 306 307 307 308 309 309 310 312 313 313 314
312 316 313 309 306 306 307 309 309 310 309 308 311 310 302 300 298 297 296 295 294 292 292 293 294 294 294 296 298 300 302 303 304 305 306 306 307 308 309 309 311 312 313 314
312 312 313 315 312 307 308 307 307 307 308 310 311 309 301 299 297 296 294 293 293 291 291 291 291 292 291 291 292 294 296 299 302 304 305 306 306 307 308 309 310 310 311 312
312 313 315 316 312 309 310 307 307 309 311 310 310 307 303 300 297 295 293 292 292 291 290 290 289 289 289 288 288 290 292 295 297 300 304 305 305 306 307 308 308 309 310 311
307 313 311 312 311 313 310 309 308 310 310 312 309 309 302 298 295 294 293 292 291 291 290 289 289 288 288 287 286 287 289 292 294 296 300 303 304 305 306 306 307 308 308 309
306 310 310 308 312 310 313 313 314 313 312 310 307 305 296 295 294 294 292 291 291 290 289 288 287 287 287 286 285 285 287 288 293 296 297 299 301 303 304 305 306 307 307 308
303 308 305 306 308 310 313 302 304 311 300 303 311 299 296 296 295 293 292 291 290 289 288 287 286 286 286 285 284 284 285 285 287 288 290 294 296 299 301 302 303 305 306 307
297 303 305 304 305 309 301 297 299 297 296 297 297 296 295 295 293 292 291 291 290 289 288 287 286 285 285 284 283 283 284 284 284 284 285 287 289 291 295 299 300 302 303 304
295 302 302 306 304 304 302 295 297 299 296 293 294 293 293 294 293 293 291 290 289 288 287 286 285 284 284 283 282 282 283 282 282 282 282 284 285 287 289 292 296 299 300 301
297 298 299 295 304 300 297 294 293 295 300 291 291 291 291 293 295 293 290 288 287 285 285 284 283 282 283 282 281 282 282 282 281 280 281 282 283 284 286 288 290 294 296 298
286 290 294 291 295 292 292 292 294 299 295 291 291 291 290 291 290 290 287 286 285 283 282 281 280 280 280 280 278 280 280 280 280 279 280 281 282 283 284 286 288 291 293 294
286 285 285 289 294 298 291 292 294 290 290 290 290 289 288 287 287 286 284 284 282 281 280 279 278 278 278 277 276 277 277 277 277 277 278 280 281 282 283 284 286 287 290 291
285 285 285 288 290 287 287 289 287 288 287 289 290 286 284 285 284 283 282 282 280 279 278 277 276 277 276 275 275 275 275 275 274 275 276 277 279 280 281 283 284 286 288 290
281 284 283 283 280 286 284 286 286 287 288 287 285 284 282 282 281 282 281 280 279 278 277 275 275 275 274 273 273 273 273 272 273 273 274 276 278 278 279 280 283 284 286 288
282 284 282 282 285 286 282 286 288 288 286 283 281 281 280 280 280 280 279 278 277 275 274 273 273 273 272 271 271 271 271 270 271 272 273 274 275 277 277 278 280 281 283 285
283 283 283 283 283 286 288 289 287 286 284 282 279 277 277 278 278 276 275 274 273 272 271 271 271 270 270 270 270 271 271 270 269 270 272 272 274 275 275 277 277 279 281 282
Wind_Speed
1 3 7 5 5 3 4 2 2 2 2 3 5 9 18 12 9 17 13 9 9 8 5 6 9 17 23 25 28 25 21 16 12 8 5 3 2 2 3 3 2 1 2 3
4 6 5 5 4 1 2 3 4 4 2 1 6 18 18 16 12 8 7 9 7 5 3 5 8 20 25 29 28 24 18 15 11 7 5 3 3 2 3 2 2 3 3 3
5 2 6 7 4 5 2 4 3 5 5 1 7 9 7 5 4 4 6 6 4 4 2 3 6 14 24 30 27 22 17 13 9 7 7 4 3 1 1 0 3 4 3 5
4 2 5 4 4 6 3 6 5 2 3 3 4 5 7 7 12 4 8 6 5 6 3 3 5 11 22 26 22 18 14 11 8 7 7 5 3 3 2 2 3 4 5 6
5 4 4 4 5 8 5 4 5 2 3 2 3 2 8 4 7 6 8 9 6 6 2 4 4 11 18 21 19 15 13 10 7 6 6 4 3 3 2 3 5 5 5 7
2 1 4 5 2 5 8 5 6 4 2 2 3 4 5 3 3 7 6 9 8 4 4 5 7 15 17 16 15 14 11 9 7 7 7 4 3 3 3 5 5 5 6 7
1 2 2 3 5 3 2 5 2 4 3 5 1 2 9 8 11 7 8 9 8 5 4 2 4 9 15 15 13 12 11 9 7 7 7 6 4 4 5 6 6 6 7 8
6 3 8 5 6 7 6 6 5 6 4 3 3 6 4 3 6 10 11 9 7 6 4 1 2 6 12 12 12 11 10 7 7 7 7 7 5 5 6 6 6 5 5 7
5 4 1 1 2 4 5 4 4 6 2 3 4 7 2 6 13 16 18 18 16 9 7 2 4 6 8 10 10 10 8 7 7 7 7 8 7 6 7 6 7 8 7 8
1 1 3 2 2 3 3 6 3 2 3 4 4 5 5 10 13 15 18 17 18 16 11 7 3 3 4 6 8 8 8 8 8 9 9 8 8 8 8 8 7 8 7 8
6 3 2 2 5 7 3 3 2 4 4 5 2 5 3 4 6 9 11 14 14 14 14 13 11 13 7 5 6 9 10 10 10 10 10 10 10 10 10 10 9 9 8 8
2 3 4 6 2 1 1 5 5 4 4 3 2 4 5 5 6 8 10 12 12 12 13 12 17 20 22 21 14 12 13 14 13 12 12 12 12 12 13 13 12 11 11 10
5 3 2 2 2 3 4 4 3 3 2 6 5 3 4 4 6 9 10 12 12 14 15 14 18 19 21 22 24 21 16 16 17 15 15 14 15 15 15 15 14 13 14 13
6 3 2 2 2 1 4 4 6 5 3 5 6 5 6 5 8 9 10 9 10 12 14 13 14 18 21 23 23 25 24 20 16 17 17 17 17 17 18 17 16 16 16 17
3 1 1 1 3 3 3 1 3 12 9 7 4 3 3 4 4 5 7 8 11 13 14 14 14 16 21 24 26 27 27 28 22 16 17 21 19 18 18 19 19 18 19 21
4 2 2 3 2 4 3 4 5 2 4 4 1 2 2 3 5 8 10 10 11 11 12 13 13 19 21 23 25 26 27 30 26 19 16 17 20 21 20 20 21 21 21 22
5 3 3 2 4 2 2 5 5 2 6 4 3 3 5 4 6 8 8 9 10 10 11 11 12 16 19 23 25 25 25 26 27 25 21 19 15 15 19 22 23 23 25 24
3 3 2 2 3 2 3 3 3 7 6 6 5 6 4 2 5 6 8 8 9 10 10 11 16 19 21 22 26 25 23 24 26 27 27 25 23 20 18 17 20 23 25 27
3 1 1 2 2 0 4 4 3 3 2 5 4 8 8 8 7 5 8 8 9 10 14 15 16 18 19 21 24 23 22 23 25 27 28 29 27 26 24 22 20 21 24 27
2 3 1 1 2 5 3 2 2 4 3 2 4 6 8 6 2 2 8 7 9 12 13 15 17 16 17 21 26 23 23 22 25 28 30 28 26 25 25 24 24 23 22 26
3 3 3 2 2 3 2 5 2 2 1 1 1 2 4 3 2 4 6 8 10 11 13 14 15 15 17 20 22 20 21 23 27 30 30 29 29 27 25 24 24 24 23 23
3 3 2 1 1 6 1 1 3 3 1 2 1 2 1 2 4 4 5 6 10 11 14 14 15 15 15 18 19 19 19 24 26 30 29 30 30 29 28 26 23 23 22 21
2 5 3 6 4 3 2 2 1 2 3 1 1 1 1 3 3 5 5 5 8 10 12 13 15 15 14 17 19 20 22 24 28 29 27 27 28 25 29 27 23 23 20 19
3 3 2 3 4 3 2 2 2 2 2 2 2 2 1 3 5 6 5 6 7 10 12 14 15 15 17 18 18 18 21 26 30 28 27 26 25 26 24 26 23 22 19 19
4 4 3 4 3 2 5 5 5 4 4 3 2 2 2 2 4 3 4 6 7 9 10 13 14 16 19 22 24 26 26 28 27 25 25 24 24 24 25 22 21 25 25 21
5 6 4 4 6 4 4 3 5 6 5 4 4 2 2 3 3 3 5 7 9 12 16 16 17 18 24 28 29 29 28 27 27 25 22 23 23 25 23 23 29 21 21 26
Wind_Direction
67 128 204 178 171 109 131 160 288 272 7 290 253 278 285 289 265 276 277 268 276 278 318 307 208 187 180 179 175 177 182 192 201 200 193 197 173 18 15 352 351 56 102 113
60 241 171 138 190 211 9 32 281 278 320 269 340 295 282 275 262 254 279 280 277 286 4 41 135 165 172 172 173 174 183 192 201 211 201 181 149 29 357 24 105 117 108 121
159 243 152 141 147 169 217 201 222 225 331 47 325 293 329 307 285 293 268 267 284 337 260 126 127 158 167 169 172 174 181 192 199 197 186 170 128 200 270 148 135 127 128 145
236 276 110 130 196 137 209 200 181 204 68 245 19 288 308 309 308 329 354 352 319 356 46 133 135 152 167 169 171 173 179 188 195 193 193 203 213 169 221 181 154 147 149 157
238 141 154 138 203 164 226 124 140 99 104 4 340 72 272 304 301 351 16 15 350 355 336 158 142 155 167 164 168 171 177 185 194 195 195 191 174 176 207 192 168 158 163 167
206 312 160 187 73 155 153 84 59 58 80 4 268 134 288 275 20 316 325 349 331 350 31 93 131 159 155 163 168 171 177 187 196 198 199 202 201 197 195 180 181 181 172 174
346 216 164 146 88 43 105 94 350 352 8 225 335 87 246 324 323 311 330 339 345 21 48 90 151 151 156 165 172 179 184 195 205 207 210 216 210 212 215 201 199 196 187 183
159 264 174 189 177 175 190 153 158 203 203 260 100 229 241 27 18 13 8 356 23 27 33 110 185 165 165 173 182 193 201 206 215 220 221 218 221 222 224 214 209 205 207 196
154 263 351 97 128 128 183 199 162 106 39 50 223 279 252 29 11 14 6 6 6 4 12 20 136 175 176 190 202 212 218 228 235 234 228 224 226 230 224 221 216 212 214 198
77 160 21 353 115 40 162 165 85 8 173 232 268 277 254 1 353 359 9 4 4 13 11 20 42 155 200 222 232 235 238 249 258 248 245 238 234 241 239 231 228 225 221 214
109 47 338 138 210 169 136 188 83 142 170 181 155 253 25 24 5 352 6 11 7 8 14 21 21 18 355 313 281 269 261 261 264 262 256 250 239 238 242 240 238 234 232 234
57 134 183 205 218 289 320 206 170 155 221 236 146 267 96 84 44 16 11 11 11 13 16 21 23 31 24 15 352 317 295 280 273 270 266 260 256 244 243 242 242 240 236 230
149 175 104 11 20 12 217 199 184 119 102 203 147 238 129 69 51 26 18 14 12 11 15 16 22 21 16 12 11 7 342 307 290 278 269 265 258 252 249 248 247 246 244 241
176 171 205 200 107 337 190 201 182 173 192 222 223 150 212 35 30 21 17 18 17 17 16 11 19 12 9 6 3 3 1 349 323 292 274 269 267 261 257 256 254 255 252 248
54 103 114 282 279 345 347 324 207 209 224 218 298 211 53 48 40 29 28 26 27 22 17 13 13 4 6 3 0 357 358 358 345 319 288 274 274 270 266 259 254 255 255 255
344 56 37 303 237 229 245 234 273 312 306 285 257 147 36 94 57 38 31 30 28 19 14 11 8 4 2 2 358 352 354 359 8 1 335 309 292 282 273 268 261 254 255 257
6 357 41 284 342 302 231 6 324 34 39 345 255 39 17 39 55 42 35 38 29 15 7 5 2 355 359 360 355 352 351 1 11 13 11 6 347 320 298 285 273 264 257 258
20 14 4 284 358 294 116 22 52 97 52 35 62 43 29 15 94 67 41 29 19 9 3 357 355 355 357 355 354 350 356 4 8 8 4 1 355 344 330 305 288 278 270 264
217 346 298 216 206 97 175 16 16 3 67 18 33 20 3 335 150 76 44 32 18 6 0 353 350 348 347 353 350 347 353 1 4 0 355 356 354 346 338 330 312 290 278 270
169 302 125 11 202 220 54 357 341 292 243 358 24 27 6 0 187 48 17 12 9 6 1 353 350 348 351 349 350 350 351 355 355 349 343 348 349 346 341 333 323 308 289 277
1 8 191 224 257 287 302 311 350 116 173 172 54 27 20 42 16 339 4 6 10 1 358 358 356 357 355 353 352 352 349 350 340 338 339 343 348 346 344 335 330 323 307 290
162 124 210 68 68 260 280 340 156 182 193 191 175 120 356 338 330 6 353 347 355 357 356 360 357 355 355 356 355 353 354 343 338 335 336 339 342 344 344 341 334 328 326 307
288 185 188 177 217 230 314 214 244 122 152 154 134 114 22 306 324 327 330 349 351 353 351 353 348 342 350 354 353 346 344 344 342 340 335 333 337 335 338 339 334 332 329 312
283 188 203 38 296 243 216 280 175 143 153 156 162 185 224 284 311 317 329 339 342 344 345 344 342 339 338 344 344 338 337 341 343 337 334 334 331 329 333 332 326 326 324 318
205 139 187 266 259 309 288 215 198 181 169 165 170 213 261 277 287 302 313 325 331 330 334 335 333 328 326 330 333 337 338 341 336 331 329 329 330 328 326 323 320 317 310 310
187 189 165 221 204 170 215 228 174 184 205 202 186 264 264 263 286 329 312 322 324 326 325 325 322 319 321 324 324 326 334 335 330 322 322 322 322 322 321 322 321 318 307 310